Temp
2 2 2 2 2 2 2 2 2 2 2 2 2 2 2 2 2 2 2 3 3 1 3 4 5 5 5 6 6 6 6 6 6 7 7 7 7 9 8 8 11 10 9 8 8 8 8 11 13 11 10 10 10 9
1 1 2 2 2 2 2 2 2 2 2 2 2 2 2 2 2 2 2 2 3 2 1 4 5 5 5 6 6 6 6 6 6 6 6 6 6 8 9 8 10 8 9 8 9 8 9 10 11 11 9 9 10 9
1 1 2 2 2 2 2 2 2 2 2 1 1 1 2 2 2 2 2 3 3 2 2 3 3 5 5 6 6 6 4 7 6 6 5 6 7 7 7 7 9 10 10 7 9 10 10 10 10 10 10 10 9 9
1 1 2 2 2 2 2 2 2 2 2 1 1 1 1 2 2 2 2 2 2 2 1 2 6 4 5 6 5 6 8 7 6 5 5 4 6 7 6 8 8 8 9 8 7 9 11 10 9 10 10 10 9 8
1 1 2 2 2 2 2 2 2 1 1 1 1 1 1 2 2 2 1 2 2 3 3 3 4 4 4 4 4 6 7 6 5 5 4 5 5 6 5 5 6 8 9 6 6 9 9 10 10 9 8 9 9 9
1 1 2 2 2 1 1 1 2 1 2 1 1 1 1 1 1 1 1 2 2 2 2 4 4 4 5 5 6 6 5 4 4 5 5 5 6 6 3 3 6 8 8 8 9 10 8 10 10 9 9 8 8 8
1 1 1 1 1 0 1 1 1 2 1 1 1 1 1 1 0 1 1 3 4 2 2 4 4 5 5 5 4 4 4 3 4 4 4 4 5 5 1 4 7 7 8 8 9 9 8 9 8 9 8 8 8 8
1 1 1 1 1 1 1 1 1 1 1 1 1 1 1 1 1 1 3 3 1 2 2 4 4 5 6 4 5 3 3 3 3 3 3 4 4 3 3 5 7 9 8 8 7 7 7 7 7 7 7 7 6 6
0 0 1 1 1 1 1 1 1 1 1 1 1 1 0 0 0 1 2 3 1 3 4 3 4 4 5 3 3 3 2 1 2 1 3 3 2 3 5 6 6 7 7 7 7 6 6 6 6 6 6 6 5 5
-0 0 0 0 0 0 1 1 1 1 1 1 1 -0 1 0 2 2 2 1 1 2 3 3 3 4 4 2 1 2 0 1 2 3 2 1 3 4 6 6 7 6 6 6 6 6 6 5 5 5 6 5 4 4
2 2 2 2 1 0 -1 1 1 1 1 -0 0 1 1 1 1 1 1 1 1 2 3 4 4 4 3 3 2 1 0 1 2 3 3 3 3 4 6 6 5 6 5 5 5 5 5 5 6 4 4 3 3 2
1 2 2 2 1 1 1 -0 0 0 1 1 1 0 0 1 1 2 1 2 2 5 3 3 3 4 3 2 2 0 3 1 3 1 1 1 3 5 6 7 6 4 4 4 3 2 1 1 2 3 3 3 2 3
2 3 3 2 2 1 1 0 -0 1 2 1 1 1 1 0 1 2 -0 2 -0 1 2 2 1 3 3 1 0 1 2 1 1 -2 1 3 3 6 5 5 5 2 2 2 1 1 1 -0 -1 -0 2 3 3 0
3 3 3 3 2 2 2 2 2 3 3 1 1 1 1 0 2 2 3 2 1 1 2 2 1 3 -0 1 -3 1 1 2 1 -1 3 2 3 3 3 1 1 0 1 0 0 -0 -1 -2 -4 -4 -2 0 -0 -2
3 4 4 4 5 5 5 5 5 5 3 2 2 -0 1 -0 -0 -1 -2 2 0 1 2 2 1 2 0 0 1 2 1 1 2 2 1 -1 2 1 1 1 2 0 1 1 0 -1 -2 -2 -2 -3 -2 -1 -1 -2
4 4 3 4 5 6 6 6 6 5 1 1 0 -0 -2 -2 -4 -4 -4 -2 -1 0 -0 2 -1 0 0 1 2 1 3 2 1 -1 2 2 2 1 1 -1 1 1 1 -0 -1 -1 -1 -2 -3 -3 -3 -2 -3 -3
3 2 2 3 4 5 6 5 4 -1 0 2 -2 -3 -5 -5 -5 -7 -3 -2 -1 0 -1 1 1 2 2 1 2 2 -1 -1 0 1 2 1 0 -1 -1 0 -1 -0 -0 -1 -1 -2 -2 -3 -2 -2 -3 -4 -3 -3
2 2 2 3 4 4 4 3 0 1 2 -3 -2 -4 -1 -6 -5 -2 -4 -1 1 1 0 2 2 2 -0 2 0 -0 -1 -2 -2 -1 0 1 -2 -2 -1 -1 -2 0 -0 -1 -1 -2 -2 -2 -2 -3 -3 -3 -4 -5
2 2 3 3 2 2 0 1 1 -0 -1 -3 -3 -1 -1 -3 -3 -3 -3 -1 0 1 1 1 3 2 1 0 0 -3 -3 -1 -0 -0 1 -2 -2 -2 -2 -1 -1 -1 -1 -1 -2 -2 -2 -2 -2 -3 -3 -3 -4 -4
2 2 2 3 3 1 2 -0 1 0 -1 -3 -0 -2 -1 -2 -2 -2 -1 -1 -1 -0 1 2 1 0 -1 -1 -1 -1 -1 -2 -1 -1 -1 -3 -2 -1 -1 -0 -0 -1 -1 -1 -2 -2 -2 -3 -3 -3 -3 -3 -4 -5
2 2 3 3 2 0 -0 -1 -0 -1 1 2 1 0 2 1 2 1 2 1 2 2 1 -0 -2 -1 -1 -2 -1 -2 -1 -1 0 1 0 -2 -1 -1 -1 -0 -1 -1 -1 -2 -2 -2 -2 -3 -3 -3 -3 -4 -3 -4
2 2 2 2 0 -0 0 1 1 0 1 1 0 1 2 2 1 1 1 1 2 1 -1 -1 -1 0 1 1 -0 1 2 1 1 -1 -1 -0 -1 -1 -1 -1 -1 -1 -2 -2 -2 -2 -3 -2 -3 -3 -4 -5 -4 -5
2 2 1 0 -1 -2 -0 1 1 1 2 0 1 3 1 2 3 1 3 3 1 -1 -1 1 2 2 1 1 1 1 1 1 -0 -1 -2 -1 -1 -0 -1 -1 -1 -2 -3 -3 -2 -2 -2 -2 -3 -3 -4 -5 -6 -6
2 -1 -2 -2 0 -2 -2 0 1 1 0 1 1 1 2 2 2 2 2 -0 -1 -1 -0 1 0 -0 -0 0 0 -0 0 1 -0 -1 -1 -1 -1 -1 -0 -0 -0 -1 -1 -1 -1 -2 -1 -2 -3 -4 -5 -6 -6 -7
-2 -3 -1 -3 -2 0 -1 -2 -1 1 -1 -1 1 -1 -1 2 1 1 2 1 1 0 -0 -0 0 1 1 0 -0 -1 -0 -0 -1 -1 -1 -1 -1 -1 -2 -1 -1 -1 -0 -1 -2 -2 -3 -3 -3 -4 -4 -5 -5 -6
-3 -4 -0 -1 -4 -1 -2 -2 -3 -2 -2 -4 -3 -2 -1 1 1 1 2 -0 -0 -0 -1 -1 -0 1 1 0 -0 -1 -1 -0 -0 -2 -1 -2 -1 -1 -2 -2 -4 -3 -1 -1 -1 -2 -3 -3 -3 -4 -4 -4 -5 -6
-2 -5 -1 -1 -1 -0 -4 -5 -1 -4 -5 -6 -4 -3 -1 -1 -2 -0 -1 -2 -2 -2 -2 -2 -2 -1 0 -1 -1 -1 -0 -0 -1 -1 -1 -2 -2 -2 -2 -3 -5 -1 -1 -1 -2 -2 -3 -3 -4 -4 -5 -5 -6 -6
-1 -2 -3 -5 -4 -3 -4 -7 -7 -6 -5 -2 -2 -4 -4 -2 -1 -3 -3 -1 0 -0 -1 -1 -2 -2 -2 -1 -1 -1 -2 -2 -2 -2 -3 -3 -3 -2 -2 -2 -2 -2 -2 -1 -2 -2 -3 -3 -4 -4 -5 -6 -7 -7
-3 -3 -3 -5 -8 -5 -5 -4 -5 -3 -3 -4 -6 -5 -3 -3 -6 -6 -2 -0 -0 -1 -4 -5 -2 -2 -2 -2 -3 -2 -2 -2 -4 -4 -4 -4 -7 -3 -3 -4 -3 -3 -2 -3 -3 -3 -3 -3 -4 -5 -5 -6 -6 -7
-4 -3 -3 -7 -7 -4 -5 -5 -5 -7 -5 -4 -5 -4 -3 -4 -1 1 -0 -2 -5 -5 -4 -2 -2 -3 -5 -5 -5 -4 -3 -3 -3 -4 -6 -6 -5 -2 -3 -4 -4 -4 -4 -4 -4 -5 -5 -5 -5 -6 -7 -8 -8 -8
-3 -4 -3 -4 -5 -5 -5 -8 -11 -10 -10 -6 -5 -4 -2 -3 -5 -1 -2 -3 -4 -4 -4 -5 -5 -3 -3 -4 -5 -7 -6 -3 -3 -4 -3 -3 -3 -2 -4 -4 -4 -4 -5 -5 -5 -5 -6 -6 -6 -7 -8 -9 -9 -9
-8 -7 -7 -6 -4 -5 -9 -8 -8 -10 -10 -10 -7 -11 -8 -9 -7 -9 -4 -4 -4 -5 -5 -3 -3 -3 -2 -2 -2 -2 -3 -2 -3 -3 -3 -3 -3 -3 -4 -5 -5 -5 -5 -5 -5 -6 -6 -6 -7 -8 -9 -9 -10 -10
-8 -9 -9 -6 -6 -5 -6 -6 -5 -6 -9 -10 -11 -12 -11 -7 -6 -9 -5 -4 -4 -4 -3 -2 -3 -3 -3 -3 -2 -2 -3 -3 -3 -4 -4 -4 -4 -4 -5 -5 -5 -5 -5 -6 -6 -6 -7 -7 -8 -8 -9 -10 -10 -11
Height
658 666 674 681 688 695 702 708 714 720 726 731 734 738 741 745 748 752 754 758 760 759 754 752 750 750 751 745 746 748 750 747 749 745 742 746 746 736 740 736 722 721 729 744 750 750 749 720 718 729 728 722 724 727
643 654 663 671 678 686 693 700 707 714 720 724 729 733 736 740 743 748 750 753 756 757 750 745 742 740 744 744 744 742 741 742 743 742 746 746 745 735 729 737 722 738 726 734 733 735 720 716 717 715 718 720 721 725
630 643 653 662 670 678 686 693 701 707 713 719 723 728 731 735 738 742 745 748 752 752 746 743 732 734 735 736 738 740 740 734 737 735 743 744 741 734 737 739 727 719 717 731 727 718 716 714 713 714 714 714 720 723
623 636 647 656 664 672 680 687 695 702 708 713 718 722 726 730 733 737 740 743 747 747 745 728 721 721 722 725 727 729 731 728 728 732 740 741 738 730 734 726 729 727 721 722 727 716 712 712 713 712 713 714 717 722
621 633 643 651 659 667 674 682 690 697 703 709 714 718 722 726 730 734 736 738 741 744 731 723 716 712 713 713 714 720 720 724 727 733 739 737 734 733 735 734 731 720 720 730 730 713 710 711 709 712 715 715 716 718
622 632 641 648 656 663 671 679 685 692 699 705 710 715 719 723 727 730 732 731 732 738 739 723 712 707 700 706 710 711 713 720 726 728 730 730 727 732 746 742 722 713 711 712 713 709 711 709 708 709 710 714 713 715
627 635 642 648 654 661 668 674 681 689 696 702 707 712 716 719 724 724 723 722 724 735 735 726 712 706 704 706 709 713 716 721 724 729 732 732 730 729 745 732 716 711 708 708 708 708 710 709 709 707 709 708 709 711
634 638 641 645 650 656 663 670 679 687 694 700 706 710 714 718 721 720 713 718 726 727 732 719 703 702 707 713 717 719 724 725 726 730 732 731 729 731 734 715 703 699 701 704 703 704 705 704 705 704 703 705 707 707
634 635 636 639 644 650 658 666 676 684 692 699 706 710 714 715 714 709 714 717 720 721 712 707 705 706 705 716 719 723 725 737 731 736 729 729 732 728 710 704 701 699 700 699 697 698 699 701 699 699 699 700 703 702
631 626 625 628 630 637 649 660 671 682 692 701 707 710 708 703 708 710 712 714 712 707 706 704 705 705 705 715 726 725 730 732 734 727 727 734 723 705 698 694 692 692 693 693 697 697 695 696 694 693 693 693 694 695
633 630 626 620 611 614 634 653 667 681 692 698 702 700 698 698 704 707 701 703 708 707 707 700 701 699 704 712 719 724 732 733 732 727 727 726 717 700 688 688 685 684 685 687 688 688 689 689 686 688 687 686 687 689
641 638 634 627 620 617 630 653 670 679 686 690 691 694 695 698 700 700 703 699 697 689 696 696 696 697 702 704 717 727 723 731 727 727 735 730 710 691 689 684 684 688 689 688 688 689 689 687 684 682 680 679 680 681
651 649 645 643 644 646 652 662 673 680 684 689 689 693 694 700 698 691 706 693 706 695 694 695 703 699 703 708 722 726 728 736 728 746 729 712 697 687 687 688 687 690 691 692 688 686 682 680 679 678 674 671 673 678
661 659 658 660 661 662 666 670 676 680 681 683 687 693 693 700 691 689 684 687 690 689 688 690 699 697 711 715 731 729 728 724 733 742 710 704 691 690 690 692 691 692 691 690 687 685 684 683 681 677 670 668 670 676
667 666 663 663 664 666 669 673 674 674 671 677 681 700 698 697 693 692 691 684 686 687 687 693 700 702 713 720 719 721 727 730 717 713 707 704 696 695 694 693 692 693 691 690 689 689 687 684 683 681 676 675 675 678
672 669 668 668 667 666 666 666 666 668 675 682 689 696 701 702 708 703 700 696 690 690 692 695 711 714 718 717 716 723 710 710 710 708 697 696 695 695 695 693 690 690 690 690 690 688 688 687 685 685 683 682 683 684
677 679 679 675 671 669 666 665 669 680 686 687 702 700 705 706 709 710 701 698 693 696 707 702 708 707 707 712 710 705 712 705 697 694 689 688 690 691 689 690 689 688 688 689 689 688 689 688 687 688 688 689 689 691
685 685 684 680 675 673 673 675 681 687 692 702 704 703 696 700 700 698 698 695 694 695 700 699 699 701 712 700 705 697 694 690 690 688 685 682 683 685 685 686 685 684 685 687 688 689 689 689 689 690 692 693 694 697
688 687 686 684 682 682 684 686 688 697 699 700 699 697 698 697 694 692 692 691 691 692 695 697 694 696 696 690 689 693 691 688 686 683 680 681 680 681 682 683 683 683 683 685 686 688 689 690 690 692 694 696 698 701
692 691 690 688 685 685 688 692 691 693 697 701 694 696 694 694 691 690 689 692 694 696 694 689 687 684 685 681 679 679 678 677 681 685 683 680 679 680 681 681 680 680 682 684 686 688 689 691 692 694 695 697 700 703
696 695 692 691 689 691 695 696 694 696 693 691 691 691 685 686 685 684 683 686 688 684 684 678 680 675 672 672 671 671 672 674 675 675 676 680 678 679 678 678 678 679 681 683 685 687 689 690 693 694 696 698 701 704
700 698 696 694 694 694 695 695 696 694 694 691 692 688 684 682 683 681 680 682 678 673 673 671 670 669 669 669 668 668 668 670 671 673 674 675 676 676 675 675 677 678 679 681 683 685 687 690 692 694 696 699 702 705
701 700 698 698 701 702 702 695 695 693 691 694 689 682 684 680 676 679 675 672 670 665 663 662 661 662 663 663 665 666 666 667 669 670 672 672 672 673 673 673 674 676 678 679 681 684 686 688 691 693 696 699 702 706
702 702 704 706 704 710 703 699 696 695 694 692 690 686 680 678 677 676 674 673 670 666 663 661 661 661 662 662 662 662 663 665 667 669 670 670 671 671 671 671 672 673 675 676 679 681 683 685 688 692 695 698 702 705
709 712 708 714 708 704 708 707 705 697 703 698 691 694 686 677 680 675 669 668 666 666 665 663 662 661 661 661 661 662 663 665 666 667 668 668 669 669 670 670 671 672 673 675 677 679 681 683 686 689 692 695 698 701
715 714 708 708 714 708 711 711 714 706 706 710 699 689 684 679 678 673 666 671 671 670 669 668 666 663 661 660 661 661 661 663 664 666 666 667 668 669 669 671 672 671 672 673 674 675 677 679 682 685 688 691 694 698
712 718 706 704 704 703 714 714 704 711 714 716 703 696 687 688 689 673 672 672 671 670 669 668 667 665 662 660 660 659 660 662 664 665 665 666 667 668 668 670 671 671 671 672 673 674 675 677 680 682 686 689 692 695
709 709 713 714 712 707 715 722 721 716 705 691 691 700 700 684 677 671 668 665 666 665 665 664 664 663 661 660 659 660 661 663 664 665 666 667 667 668 668 668 668 669 671 671 672 674 675 676 678 681 684 687 691 694
714 709 710 716 721 713 712 707 706 695 690 692 702 696 684 672 668 665 662 661 660 661 661 661 659 660 659 659 659 660 660 662 664 667 668 669 669 667 667 668 668 669 670 671 673 674 675 677 679 681 683 686 690 694
713 708 710 721 720 709 702 696 695 690 686 684 682 678 672 665 660 659 656 654 655 655 655 655 656 657 658 659 660 661 662 663 664 665 668 669 668 667 667 668 669 670 671 672 673 675 676 678 680 682 685 688 691 695
709 710 708 707 706 698 692 690 688 687 684 679 675 674 665 661 653 649 648 648 649 649 651 652 653 654 655 657 659 661 662 662 663 664 665 666 666 666 667 668 670 671 673 674 675 676 678 680 682 684 687 690 693 696
715 715 717 714 701 692 692 691 690 690 685 684 676 678 671 671 667 655 652 651 651 651 651 650 651 652 653 654 656 657 659 660 661 662 664 665 665 666 667 669 670 671 673 674 676 678 680 681 684 686 689 692 695 698
713 713 712 707 705 698 694 693 686 683 685 686 682 679 675 669 666 658 656 655 655 653 652 652 652 652 653 654 655 656 657 658 659 662 663 664 665 666 667 669 670 671 673 675 677 678 681 683 685 688 690 693 696 700
Wind_Speed
46 44 42 40 40 39 38 37 37 34 29 27 26 23 22 22 23 22 14 18 16 4 8 7 7 8 5 4 8 4 1 2 2 7 3 3 3 5 4 5 4 5 6 3 3 4 9 5 0 6 5 1 8 6
46 44 42 39 39 38 37 37 36 33 30 28 25 23 21 22 23 22 13 20 22 5 4 8 20 20 12 20 3 5 2 4 4 1 2 2 2 1 2 2 2 3 3 4 7 6 6 5 6 3 5 4 3 6
43 42 41 39 38 36 35 36 34 31 29 26 24 23 21 21 22 23 18 17 18 5 7 11 13 25 27 26 19 5 3 5 4 3 2 2 3 4 4 4 4 3 2 3 2 4 6 7 3 4 6 7 7 6
39 39 38 37 36 36 35 33 33 30 28 26 25 23 22 21 23 22 20 19 15 2 3 7 18 12 22 27 25 22 16 5 3 3 3 3 2 3 3 2 4 4 2 2 4 3 2 1 7 6 3 4 5 3
34 35 34 34 34 34 35 32 30 28 27 25 23 23 21 20 20 20 20 22 24 8 3 3 3 8 10 9 18 22 14 5 3 2 2 3 1 1 1 1 3 3 3 3 4 5 3 3 4 5 5 4 7 8
31 31 30 29 28 28 27 28 30 30 28 25 23 21 20 19 17 11 2 19 29 24 3 3 5 2 7 10 19 9 5 3 3 4 2 1 2 3 1 2 4 7 5 7 5 4 3 3 2 6 6 9 8 7
24 23 23 22 25 28 31 30 29 28 26 22 20 19 19 19 20 7 5 2 18 22 2 3 4 2 6 3 3 4 4 2 3 2 2 3 2 4 2 4 5 7 7 5 5 4 2 4 5 6 7 9 8 9
13 16 19 23 26 28 30 30 29 26 24 21 18 17 16 16 12 16 39 25 8 11 1 4 3 3 5 2 2 2 2 2 3 2 1 2 1 1 3 7 12 13 11 8 10 7 8 7 5 8 6 4 7 8
6 13 19 23 26 29 31 31 29 27 23 19 15 14 8 7 5 8 14 20 16 11 4 2 1 2 3 2 2 2 2 1 1 2 2 3 1 4 8 8 8 9 6 7 7 7 7 7 9 8 8 7 8 9
17 24 13 31 38 33 34 34 33 29 24 19 14 4 4 10 16 9 7 2 4 3 0 2 2 3 3 2 1 2 1 2 2 3 2 2 4 8 11 11 10 9 8 7 5 7 6 7 8 9 8 7 9 8
34 29 20 26 13 35 57 42 36 32 26 9 3 3 5 20 6 2 2 2 2 1 3 3 3 4 1 3 2 0 2 1 1 3 3 2 3 5 5 8 8 8 8 8 7 8 7 8 10 8 9 9 8 7
38 39 43 43 41 33 40 51 41 24 11 14 7 7 4 2 2 3 3 3 3 4 3 4 4 3 1 3 3 1 2 1 3 1 3 3 4 5 5 5 2 4 3 1 3 5 7 7 6 8 9 8 8 17
30 36 40 43 39 38 41 44 42 28 21 11 2 3 2 1 2 3 4 0 0 3 3 3 2 3 2 3 3 3 3 3 1 2 3 4 4 2 2 3 2 3 4 4 3 5 8 9 12 8 10 14 16 16
23 28 31 36 33 27 26 26 28 27 6 3 4 3 2 2 1 3 2 3 3 3 4 4 3 3 1 3 2 4 3 2 1 2 5 3 3 3 0 1 4 5 6 7 7 7 7 6 6 10 5 12 17 14
19 21 28 30 28 24 18 19 18 13 2 3 4 3 2 2 1 2 2 1 3 2 3 3 3 3 3 4 0 3 2 4 5 4 3 2 3 3 3 3 4 5 5 5 4 4 5 5 4 5 10 10 17 21
10 13 24 23 24 21 15 10 8 3 3 3 6 3 2 3 4 4 3 3 2 2 2 3 3 3 2 4 3 6 4 6 4 3 2 2 2 3 5 4 3 4 3 3 3 2 4 3 2 3 10 13 12 13
12 8 15 19 19 17 17 6 6 5 3 3 1 1 2 3 3 3 1 2 1 3 2 2 4 6 2 2 3 4 5 4 3 3 5 6 6 5 3 5 5 4 3 3 2 1 1 2 7 6 5 6 11 13
9 11 13 21 17 10 7 8 3 3 3 1 2 3 1 1 1 1 3 2 2 3 3 3 3 3 4 5 3 3 4 2 2 3 3 5 4 4 4 6 4 6 5 6 5 5 5 5 3 3 9 11 14 14
9 9 11 20 17 5 3 5 4 3 3 2 1 1 1 3 3 1 1 1 1 2 4 1 3 3 4 3 4 3 2 3 4 3 4 3 4 4 4 6 8 6 7 7 6 4 5 5 5 8 9 10 9 11
5 4 8 16 13 4 3 3 3 2 1 3 2 2 2 3 2 2 1 2 3 2 3 4 5 4 4 4 4 3 4 3 3 1 3 3 3 4 5 5 5 7 7 7 7 7 6 5 6 10 12 12 11 9
8 7 9 12 6 7 2 1 2 0 2 2 2 1 2 2 2 2 2 4 4 3 3 3 3 3 4 3 5 2 3 4 5 4 3 1 1 5 5 7 8 8 4 3 3 4 7 5 11 11 13 13 12 14
4 7 5 5 4 4 2 0 1 2 1 2 3 1 3 2 2 2 2 2 3 4 4 3 3 4 4 4 4 9 8 8 5 2 2 2 2 2 3 4 5 3 4 6 7 5 9 11 12 13 13 14 13 15
4 4 3 5 4 4 3 3 2 2 2 3 2 3 2 2 1 2 2 3 3 3 3 4 5 6 5 6 5 5 9 8 3 3 3 5 6 6 6 7 9 5 2 8 13 14 15 14 13 14 14 16 16 16
4 3 3 3 2 3 3 2 1 2 3 2 1 4 3 2 0 2 3 2 2 2 2 2 1 2 1 2 3 3 6 7 4 3 4 3 1 2 7 7 9 12 12 8 12 13 13 15 16 17 18 18 17 16
3 4 2 3 3 1 2 3 3 2 2 2 2 4 3 1 1 3 3 1 2 2 3 3 2 1 1 1 0 1 7 7 2 3 5 5 2 2 3 2 6 9 9 10 11 13 14 16 17 17 18 18 17 17
0 3 3 3 2 2 2 1 2 2 1 3 4 3 2 1 2 4 0 2 3 3 3 5 4 4 3 2 2 2 5 9 6 1 4 7 5 3 2 2 1 3 7 10 11 12 14 16 16 17 15 16 20 19
2 3 2 1 1 1 3 2 2 1 2 4 3 3 2 2 4 2 2 1 2 3 4 7 6 3 5 2 3 4 7 7 4 2 3 4 3 4 7 4 3 5 5 6 8 10 14 15 15 16 15 17 21 22
3 1 3 3 0 1 2 1 2 4 4 3 1 1 3 5 4 3 4 6 7 9 8 9 8 9 11 10 8 9 7 8 8 7 6 3 2 1 1 3 5 7 7 6 6 7 8 11 14 16 18 18 18 19
2 2 2 2 2 2 4 5 4 3 2 2 3 3 4 3 2 3 6 10 11 11 5 5 8 8 6 4 6 10 10 15 6 3 3 2 2 5 6 5 4 2 4 6 5 4 5 7 10 13 17 18 19 19
3 1 1 1 3 4 4 4 3 3 2 3 2 4 5 7 16 25 24 21 8 6 15 16 10 7 4 5 3 3 8 12 10 4 3 3 3 4 4 4 3 3 3 4 6 8 8 8 10 13 16 17 18 18
2 1 2 3 4 4 4 2 3 2 2 4 4 7 13 7 9 17 16 17 14 11 7 4 6 8 8 6 4 2 2 8 9 9 6 3 5 7 7 7 6 4 4 5 9 11 12 12 13 15 16 17 17 18
0 4 3 3 4 4 2 0 2 2 3 2 3 1 3 3 3 3 6 5 5 2 4 5 5 5 9 7 6 7 8 4 6 9 8 5 3 3 6 7 8 8 8 8 9 12 13 13 14 15 15 15 15 15
3 1 2 2 4 4 3 3 3 4 2 2 3 2 3 3 4 3 6 7 6 8 7 4 4 3 2 1 4 6 6 6 6 7 2 3 4 4 4 6 8 8 10 10 10 12 13 13 14 14 14 15 15 15
Wind_Direction
229 225 223 223 224 222 221 223 220 218 220 224 227 226 226 228 225 217 224 219 198 224 258 265 272 261 299 250 224 158 140 199 231 201 203 186 211 209 171 248 271 175 151 157 115 198 253 211 202 195 207 228 170 166
219 220 216 216 218 218 219 218 214 216 216 223 223 223 223 227 228 219 222 219 225 231 243 263 255 250 243 239 253 191 219 172 175 151 186 188 225 301 314 269 134 239 228 188 180 208 217 192 197 188 167 164 128 144
210 210 211 211 213 213 214 212 209 210 217 219 219 221 223 228 224 215 216 213 212 245 268 252 250 256 251 246 240 246 260 202 186 183 141 198 267 170 165 226 304 290 168 194 126 233 205 214 229 185 186 145 156 181
198 201 203 205 207 208 210 209 208 209 213 214 216 218 220 225 220 213 203 204 206 257 239 268 241 239 236 229 247 234 231 170 138 125 187 172 198 179 213 216 194 213 8 199 284 264 219 268 203 202 201 133 130 133
187 193 196 200 203 204 202 200 201 205 207 206 210 214 215 219 216 210 217 216 222 215 264 279 260 226 209 266 230 218 162 162 146 115 191 201 212 145 256 40 231 190 213 161 233 242 166 200 132 135 156 203 172 157
180 186 193 195 197 195 192 197 203 203 202 204 206 210 211 213 201 192 236 237 228 223 276 276 317 252 64 262 172 136 118 112 132 144 199 232 238 128 186 251 250 231 215 192 225 219 217 246 284 191 198 219 216 208
160 164 174 185 194 192 198 200 200 199 200 201 205 207 212 196 200 204 200 158 200 195 225 256 245 183 139 353 42 53 44 82 107 134 181 181 247 150 165 217 237 234 239 242 210 165 233 234 228 213 215 240 233 225
151 181 194 199 201 201 198 195 195 194 196 197 202 203 201 201 224 238 240 241 257 165 180 256 251 125 147 76 78 28 67 28 12 137 98 196 316 147 257 229 234 246 244 246 246 216 223 242 234 247 227 220 217 227
185 212 212 211 208 204 199 198 196 192 190 187 184 192 192 219 223 242 261 266 244 217 218 171 207 145 120 104 111 58 99 76 276 147 228 100 245 231 229 230 243 244 207 230 249 251 247 228 244 244 245 229 218 236
27 47 187 222 219 210 199 195 189 181 170 171 160 155 214 207 211 182 131 177 200 187 245 243 169 165 121 123 144 108 25 137 159 238 106 159 251 251 253 240 248 252 228 231 256 273 257 252 247 250 232 227 216 222
51 67 50 59 100 196 199 187 173 164 155 158 177 226 149 132 112 191 148 128 127 95 210 192 189 142 212 115 119 116 169 206 107 262 142 249 260 248 249 252 249 247 219 224 227 263 276 252 254 245 250 230 220 202
50 53 50 52 67 108 158 177 171 160 168 183 159 128 132 133 158 143 200 181 188 174 183 163 168 131 106 104 103 279 117 44 227 123 89 263 258 274 301 291 50 355 344 261 239 283 287 284 282 258 245 237 206 206
48 51 51 58 69 96 122 148 166 177 178 159 94 120 179 205 101 178 175 191 80 198 191 144 86 131 102 59 62 94 97 210 63 59 231 230 254 278 299 341 357 38 355 297 318 323 339 327 320 285 255 236 201 171
47 49 53 58 69 78 94 123 144 145 186 161 147 72 80 341 200 219 185 157 213 151 121 111 80 97 128 65 151 99 233 102 16 236 231 243 254 230 287 14 4 346 344 335 343 345 340 331 327 336 316 197 160 151
44 46 49 43 43 51 85 133 164 186 119 62 61 77 70 252 332 315 266 79 28 109 84 68 53 78 31 87 81 107 76 245 215 232 235 308 325 327 325 322 320 313 313 322 330 330 327 346 355 14 54 111 131 128
33 43 30 23 28 30 42 75 69 89 52 53 39 54 346 52 334 3 4 8 342 79 63 57 94 72 230 146 137 209 191 220 236 227 251 263 255 249 267 284 294 283 294 286 299 318 332 359 39 51 88 95 98 118
55 40 19 14 10 28 32 55 38 48 76 45 328 113 153 132 185 241 209 249 295 62 129 119 142 200 123 167 220 196 211 202 202 228 220 201 213 223 217 258 257 246 224 215 220 236 228 143 118 94 82 82 119 131
57 42 31 16 13 22 29 38 72 66 61 244 90 272 308 204 183 228 227 210 130 142 128 185 136 197 201 196 233 235 233 239 244 224 250 239 189 224 214 240 248 234 205 188 189 185 170 151 117 94 115 119 111 113
47 38 23 17 12 19 47 25 48 117 208 191 263 241 222 254 244 242 253 209 128 129 121 145 199 210 221 215 206 235 237 204 220 231 248 250 235 218 234 270 273 219 183 176 179 189 192 191 167 146 139 134 122 128
44 34 15 6 15 36 48 3 14 118 162 228 230 216 207 212 208 200 202 169 147 162 197 214 210 210 197 220 193 195 202 186 142 254 274 283 251 223 229 244 235 197 173 178 176 177 166 155 165 163 158 148 135 136
356 1 353 355 18 54 89 7 21 145 322 301 282 254 276 200 229 205 210 159 190 212 245 220 209 242 213 245 231 172 213 171 202 194 202 241 199 225 228 245 205 170 164 161 166 176 183 176 189 184 174 168 170 174
352 346 325 342 26 5 53 71 249 299 285 274 307 262 278 259 234 211 170 177 235 228 208 195 212 214 228 221 220 213 217 204 191 163 175 172 207 209 213 202 179 184 185 188 187 194 202 203 192 187 178 168 172 169
342 324 355 12 17 28 288 340 339 311 291 283 308 284 260 254 246 143 236 223 244 238 241 239 232 209 222 237 191 191 196 179 190 201 209 217 226 233 221 210 197 184 200 225 218 210 208 208 198 185 175 168 165 161
334 31 41 22 24 295 322 336 326 309 332 318 292 280 268 239 177 251 251 239 257 289 322 306 196 125 81 154 197 191 186 194 196 221 222 190 231 249 227 218 222 225 229 232 216 215 205 195 190 183 179 169 166 162
51 311 53 323 301 282 347 336 314 319 270 273 276 274 278 302 266 251 235 296 327 4 353 347 359 348 258 287 71 155 205 196 180 204 218 221 164 101 77 186 225 232 229 200 189 193 189 189 184 180 178 176 173 167
138 253 188 197 267 154 237 286 252 260 268 291 258 287 347 310 254 249 332 12 2 353 360 356 344 320 288 224 217 196 198 199 211 176 232 204 204 223 189 188 207 254 230 232 218 193 186 185 181 179 178 178 171 159
248 283 240 238 292 355 352 319 283 131 250 231 261 316 338 257 253 242 165 184 229 240 291 308 317 317 307 277 220 199 195 196 211 213 171 178 209 243 244 205 214 261 237 235 226 217 197 184 178 177 168 171 174 174
245 273 190 262 303 166 181 249 238 234 237 235 147 285 207 213 246 223 206 209 241 255 269 288 290 305 312 295 236 174 147 156 139 129 124 132 173 241 275 284 281 251 241 240 232 224 217 206 195 185 173 168 170 180
290 286 101 294 315 260 223 205 226 244 215 132 170 252 252 238 227 219 236 248 289 263 250 282 282 293 307 295 212 185 174 164 142 151 203 249 331 284 253 266 282 243 195 193 191 210 214 205 201 194 182 175 177 179
272 167 168 166 194 237 242 194 230 246 232 207 230 287 276 267 270 280 276 274 248 234 233 242 255 228 216 179 175 192 206 207 211 190 173 216 244 311 227 191 187 186 166 169 162 151 154 160 166 162 156 154 159 160
315 27 272 223 247 244 235 266 278 250 250 252 257 250 267 292 299 288 277 276 272 246 224 229 231 232 204 183 168 152 255 234 236 241 251 269 329 334 220 200 190 191 197 188 172 166 158 156 156 155 156 156 160 163
218 210 183 269 278 279 330 9 274 273 296 338 275 297 319 351 291 291 18 12 21 1 264 236 214 225 221 221 225 242 247 256 229 225 238 250 285 292 202 203 205 203 192 186 185 176 170 164 162 164 160 158 162 164
311 322 240 285 319 321 319 354 304 298 309 288 275 221 229 200 245 268 17 15 346 330 322 291 214 171 144 231 266 258 244 233 181 173 193 268 239 219 205 213 214 204 193 188 186 183 176 172 169 168 165 163 161 160